User: anonymous   Login
Location: Abraham Lincoln Continuation High School
(33.9711°N, 117.3662°W)
Time: 17:43:51
(UTC+00:00)
Language:

Cosmos 2026 Rocket - Orbit

View from above orbital plane
View from above orbital plane
View from above satellite
View from above satellite

Ground track
Ground track

The orbit data is extracted from the following two-line orbital elements,

1 20046U 89042B   20338.38632593  .00000031  00000-0  15429-4 0  9999
2 20046  82.9383  80.2466 0043240 120.0709 240.4747 13.78204243583519
Epoch (UTC): 03 December 2020 09:16:18
Eccentricity: 0.0043240
inclination: 82.9383°
perigee height: 938 km
apogee height: 1002 km
right ascension of ascending node: 80.2466°
argument of perigee: 120.0709°
revolutions per day: 13.78204243
mean anomaly at epoch: 240.4747°
orbit number at epoch: 58351

The dashed part of the orbit path shows where the satellite is in the earth's shadow,  

DLR